Time,TemperatureF,DewpointF,PressureIn,WindDirection,WindDirectionDegrees,WindSpeedMPH,WindSpeedGustMPH,Humidity,HourlyPrecipIn,Conditions,Clouds,dailyrainin,SoftwareType,DateUTC
2013-03-03 00:11:00,38.0,33.0,29.60,West,280,13.0,16.0,81,-99.99,,,-99.99,,2013-03-03 05:11:00,
2013-03-03 00:21:00,38.0,33.0,29.60,West,280,13.0,16.0,81,-99.99,,,-99.99,,2013-03-03 05:21:00,
2013-03-03 00:32:00,38.0,33.0,29.60,West,280,13.0,16.0,81,-99.99,,,-99.99,,2013-03-03 05:32:00,
2013-03-03 00:42:00,38.0,33.0,29.60,West,280,13.0,16.0,81,-99.99,,,-99.99,,2013-03-03 05:42:00,
2013-03-03 00:50:00,38.0,33.0,29.62,NW,310,9.0,11.0,81,-99.99,,,-99.99,,2013-03-03 05:50:00,
2013-03-03 01:11:00,38.0,33.0,29.62,NW,310,9.0,11.0,81,-99.99,,,-99.99,,2013-03-03 06:11:00,
2013-03-03 01:21:00,38.0,33.0,29.62,NW,310,9.0,11.0,81,-99.99,,,-99.99,,2013-03-03 06:21:00,
2013-03-03 01:31:00,38.0,33.0,29.62,NW,310,9.0,11.0,81,-99.99,,,-99.99,,2013-03-03 06:31:00,
2013-03-03 01:42:00,38.0,33.0,29.62,NW,310,9.0,11.0,81,-99.99,,,-99.99,,2013-03-03 06:42:00,
2013-03-03 01:50:00,37.0,33.0,29.61,NW,320,11.0,13.0,82,-99.99,,,-99.99,,2013-03-03 06:50:00,
2013-03-03 02:11:00,37.0,33.0,29.61,NW,320,11.0,13.0,82,-99.99,,,-99.99,,2013-03-03 07:11:00,
2013-03-03 02:21:00,37.0,33.0,29.61,NW,320,11.0,13.0,82,-99.99,,,-99.99,,2013-03-03 07:21:00,
2013-03-03 02:31:00,37.0,33.0,29.61,NW,320,11.0,13.0,82,-99.99,,,-99.99,,2013-03-03 07:31:00,
2013-03-03 02:42:00,37.0,33.0,29.61,NW,320,11.0,13.0,82,-99.99,,,-99.99,,2013-03-03 07:42:00,
2013-03-03 02:50:00,37.0,32.0,29.59,NW,320,11.0,13.0,81,-99.99,,,-99.99,,2013-03-03 07:50:00,
2013-03-03 03:11:00,37.0,32.0,29.59,NW,320,11.0,13.0,81,-99.99,,,-99.99,,2013-03-03 08:11:00,
2013-03-03 03:21:00,37.0,32.0,29.59,NW,320,11.0,13.0,81,-99.99,,,-99.99,,2013-03-03 08:21:00,
2013-03-03 03:31:00,37.0,32.0,29.59,NW,320,11.0,13.0,81,-99.99,,,-99.99,,2013-03-03 08:31:00,
2013-03-03 03:41:00,37.0,32.0,29.59,NW,320,11.0,13.0,81,-99.99,,,-99.99,,2013-03-03 08:41:00,
2013-03-03 03:50:00,37.0,30.0,29.59,NW,310,16.0,16.0,76,-99.99,,,-99.99,,2013-03-03 08:50:00,
2013-03-03 04:11:00,37.0,30.0,29.59,NW,310,16.0,16.0,76,-99.99,,,-99.99,,2013-03-03 09:11:00,
2013-03-03 04:21:00,37.0,30.0,29.59,NW,310,16.0,16.0,76,-99.99,,,-99.99,,2013-03-03 09:21:00,
2013-03-03 04:31:00,37.0,30.0,29.59,NW,310,16.0,16.0,76,-99.99,,,-99.99,,2013-03-03 09:31:00,
2013-03-03 04:41:00,37.0,30.0,29.59,NW,310,16.0,16.0,76,-99.99,,,-99.99,,2013-03-03 09:41:00,
2013-03-03 04:50:00,37.0,30.0,29.59,NNW,330,11.0,16.0,75,-99.99,,,-99.99,,2013-03-03 09:50:00,
2013-03-03 05:11:00,37.0,30.0,29.59,NNW,330,11.0,16.0,75,-99.99,,,-99.99,,2013-03-03 10:11:00,
2013-03-03 05:21:00,37.0,30.0,29.59,NNW,330,11.0,16.0,75,-99.99,,,-99.99,,2013-03-03 10:21:00,
2013-03-03 05:31:00,37.0,30.0,29.59,NNW,330,11.0,16.0,75,-99.99,,,-99.99,,2013-03-03 10:31:00,
2013-03-03 05:41:00,37.0,30.0,29.59,NNW,330,11.0,16.0,75,-99.99,,,-99.99,,2013-03-03 10:41:00,
2013-03-03 05:50:00,36.0,29.0,29.60,NW,320,11.0,11.0,75,-99.99,,,-99.99,,2013-03-03 10:50:00,
2013-03-03 06:11:00,36.0,29.0,29.60,NW,320,11.0,11.0,75,-99.99,,,-99.99,,2013-03-03 11:11:00,
2013-03-03 06:21:00,36.0,29.0,29.60,NW,320,11.0,11.0,75,-99.99,,,-99.99,,2013-03-03 11:21:00,
2013-03-03 06:31:00,36.0,29.0,29.60,NW,320,11.0,11.0,75,-99.99,,,-99.99,,2013-03-03 11:31:00,
2013-03-03 06:41:00,36.0,29.0,29.60,NW,320,11.0,11.0,75,-99.99,,,-99.99,,2013-03-03 11:41:00,
2013-03-03 06:50:00,36.0,29.0,29.62,NW,310,11.0,13.0,75,-99.99,,,-99.99,,2013-03-03 11:50:00,
2013-03-03 07:11:00,36.0,29.0,29.62,NW,310,11.0,13.0,75,-99.99,,,-99.99,,2013-03-03 12:11:00,
2013-03-03 07:21:00,36.0,29.0,29.62,NW,310,11.0,13.0,75,-99.99,,,-99.99,,2013-03-03 12:21:00,
2013-03-03 07:31:00,36.0,29.0,29.62,NW,310,11.0,13.0,75,-99.99,,,-99.99,,2013-03-03 12:31:00,
2013-03-03 07:42:00,36.0,29.0,29.62,NW,310,11.0,13.0,75,-99.99,,,-99.99,,2013-03-03 12:42:00,
2013-03-03 07:50:00,36.0,29.0,29.62,NW,310,11.0,11.0,75,-99.99,,,-99.99,,2013-03-03 12:50:00,
2013-03-03 08:11:00,36.0,29.0,29.62,NW,310,11.0,11.0,75,-99.99,,,-99.99,,2013-03-03 13:11:00,
2013-03-03 08:21:00,36.0,29.0,29.62,NW,310,11.0,11.0,75,-99.99,,,-99.99,,2013-03-03 13:21:00,
2013-03-03 08:31:00,36.0,29.0,29.62,NW,310,11.0,11.0,75,-99.99,,,-99.99,,2013-03-03 13:31:00,
2013-03-03 08:41:00,36.0,29.0,29.62,NW,310,11.0,11.0,75,-99.99,,,-99.99,,2013-03-03 13:41:00,
2013-03-03 08:50:00,35.0,28.0,29.62,NW,310,9.0,11.0,75,-99.99,,,-99.99,,2013-03-03 13:50:00,
2013-03-03 09:11:00,35.0,28.0,29.62,NW,310,9.0,11.0,75,-99.99,,,-99.99,,2013-03-03 14:11:00,
2013-03-03 09:21:00,35.0,28.0,29.62,NW,310,9.0,11.0,75,-99.99,,,-99.99,,2013-03-03 14:21:00,
2013-03-03 09:31:00,35.0,28.0,29.62,NW,310,9.0,11.0,75,-99.99,,,-99.99,,2013-03-03 14:31:00,
2013-03-03 09:42:00,35.0,28.0,29.62,NW,310,9.0,11.0,75,-99.99,,,-99.99,,2013-03-03 14:42:00,
2013-03-03 09:50:00,35.0,29.0,29.61,NW,310,9.0,11.0,76,-99.99,,,-99.99,,2013-03-03 14:50:00,
2013-03-03 10:11:00,35.0,29.0,29.61,NW,310,9.0,11.0,76,-99.99,,,-99.99,,2013-03-03 15:11:00,
2013-03-03 10:21:00,35.0,29.0,29.61,NW,310,9.0,11.0,76,-99.99,,,-99.99,,2013-03-03 15:21:00,
2013-03-03 10:31:00,35.0,29.0,29.61,NW,310,9.0,11.0,76,-99.99,,,-99.99,,2013-03-03 15:31:00,
2013-03-03 10:41:00,35.0,29.0,29.61,NW,310,9.0,11.0,76,-99.99,,,-99.99,,2013-03-03 15:41:00,
2013-03-03 10:50:00,35.0,28.0,29.60,WNW,300,9.0,9.0,75,-99.99,,,-99.99,,2013-03-03 15:50:00,
2013-03-03 11:11:00,35.0,28.0,29.60,WNW,300,9.0,9.0,75,-99.99,,,-99.99,,2013-03-03 16:11:00,
2013-03-03 11:21:00,35.0,28.0,29.60,WNW,300,9.0,9.0,75,-99.99,,,-99.99,,2013-03-03 16:21:00,
2013-03-03 11:31:00,35.0,28.0,29.60,WNW,300,9.0,9.0,75,-99.99,,,-99.99,,2013-03-03 16:31:00,
2013-03-03 11:41:00,35.0,28.0,29.60,WNW,300,9.0,9.0,75,-99.99,,,-99.99,,2013-03-03 16:41:00,
2013-03-03 11:50:00,36.0,29.0,29.60,West,270,9.0,9.0,75,-99.99,,,-99.99,,2013-03-03 16:50:00,
2013-03-03 12:11:00,36.0,29.0,29.60,West,270,9.0,9.0,75,-99.99,,,-99.99,,2013-03-03 17:11:00,
2013-03-03 12:21:00,36.0,29.0,29.60,West,270,9.0,9.0,75,-99.99,,,-99.99,,2013-03-03 17:21:00,
2013-03-03 12:32:00,36.0,29.0,29.60,West,270,9.0,9.0,75,-99.99,,,-99.99,,2013-03-03 17:32:00,
2013-03-03 12:41:00,36.0,29.0,29.60,West,270,9.0,9.0,75,-99.99,,,-99.99,,2013-03-03 17:41:00,
2013-03-03 12:50:00,35.0,29.0,29.58,West,260,11.0,11.0,75,-99.99,,,-99.99,,2013-03-03 17:50:00,
2013-03-03 13:11:00,35.0,29.0,29.58,West,260,11.0,11.0,75,-99.99,,,-99.99,,2013-03-03 18:11:00,
2013-03-03 13:21:00,35.0,29.0,29.58,West,260,11.0,11.0,75,-99.99,,,-99.99,,2013-03-03 18:21:00,
2013-03-03 13:31:00,35.0,29.0,29.58,West,260,11.0,11.0,75,-99.99,,,-99.99,,2013-03-03 18:31:00,
2013-03-03 13:41:00,35.0,29.0,29.58,West,260,11.0,11.0,75,-99.99,,,-99.99,,2013-03-03 18:41:00,
2013-03-03 13:50:00,36.0,30.0,29.57,WSW,240,13.0,13.0,77,-99.99,,,-99.99,,2013-03-03 18:50:00,
2013-03-03 14:11:00,36.0,30.0,29.57,WSW,240,13.0,13.0,77,-99.99,,,-99.99,,2013-03-03 19:11:00,
2013-03-03 14:21:00,36.0,30.0,29.57,WSW,240,13.0,13.0,77,-99.99,,,-99.99,,2013-03-03 19:21:00,
2013-03-03 14:31:00,36.0,30.0,29.57,WSW,240,13.0,13.0,77,-99.99,,,-99.99,,2013-03-03 19:31:00,
2013-03-03 14:42:00,36.0,30.0,29.57,WSW,240,13.0,13.0,77,-99.99,,,-99.99,,2013-03-03 19:42:00,
2013-03-03 14:50:00,36.0,30.0,29.56,WSW,240,13.0,16.0,78,-99.99,,,-99.99,,2013-03-03 19:50:00,
2013-03-03 15:11:00,36.0,30.0,29.56,WSW,240,13.0,16.0,78,-99.99,,,-99.99,,2013-03-03 20:11:00,
2013-03-03 15:21:00,36.0,30.0,29.56,WSW,240,13.0,16.0,78,-99.99,,,-99.99,,2013-03-03 20:21:00,
2013-03-03 15:31:00,36.0,30.0,29.56,WSW,240,13.0,16.0,78,-99.99,,,-99.99,,2013-03-03 20:31:00,
2013-03-03 15:42:00,36.0,30.0,29.56,WSW,240,13.0,16.0,78,-99.99,,,-99.99,,2013-03-03 20:42:00,
2013-03-03 15:50:00,36.0,30.0,29.56,WSW,240,16.0,20.0,78,-99.99,,,-99.99,,2013-03-03 20:50:00,
2013-03-03 16:11:00,36.0,30.0,29.56,WSW,240,16.0,20.0,78,-99.99,,,-99.99,,2013-03-03 21:11:00,
2013-03-03 16:21:00,36.0,30.0,29.56,WSW,240,16.0,20.0,78,-99.99,,,-99.99,,2013-03-03 21:21:00,
2013-03-03 16:31:00,36.0,30.0,29.56,WSW,240,16.0,20.0,78,-99.99,,,-99.99,,2013-03-03 21:31:00,
2013-03-03 16:41:00,36.0,30.0,29.56,WSW,240,16.0,20.0,78,-99.99,,,-99.99,,2013-03-03 21:41:00,
2013-03-03 16:50:00,36.0,30.0,29.56,WSW,250,16.0,18.0,79,-99.99,,,-99.99,,2013-03-03 21:50:00,
2013-03-03 17:11:00,36.0,30.0,29.56,WSW,250,16.0,18.0,79,-99.99,,,-99.99,,2013-03-03 22:11:00,
2013-03-03 17:21:00,36.0,30.0,29.56,WSW,250,16.0,18.0,79,-99.99,,,-99.99,,2013-03-03 22:21:00,
2013-03-03 17:31:00,36.0,30.0,29.56,WSW,250,16.0,18.0,79,-99.99,,,-99.99,,2013-03-03 22:31:00,
2013-03-03 17:41:00,36.0,30.0,29.56,WSW,250,16.0,18.0,79,-99.99,,,-99.99,,2013-03-03 22:41:00,
2013-03-03 17:50:00,36.0,29.0,29.57,WSW,250,13.0,16.0,77,-99.99,,,-99.99,,2013-03-03 22:50:00,
2013-03-03 18:11:00,36.0,29.0,29.57,WSW,250,13.0,16.0,77,-99.99,,,-99.99,,2013-03-03 23:11:00,
2013-03-03 18:21:00,36.0,29.0,29.57,WSW,250,13.0,16.0,77,-99.99,,,-99.99,,2013-03-03 23:21:00,
2013-03-03 18:31:00,36.0,29.0,29.57,WSW,250,13.0,16.0,77,-99.99,,,-99.99,,2013-03-03 23:31:00,
2013-03-03 18:41:00,36.0,29.0,29.57,WSW,250,13.0,16.0,77,-99.99,,,-99.99,,2013-03-03 23:41:00,
2013-03-03 18:50:00,36.0,30.0,29.58,West,270,7.0,9.0,76,-99.99,,,-99.99,,2013-03-03 23:50:00,
2013-03-03 19:11:00,36.0,30.0,29.58,West,270,7.0,9.0,76,-99.99,,,-99.99,,2013-03-04 00:11:00,
2013-03-03 19:21:00,36.0,30.0,29.58,West,270,7.0,9.0,76,-99.99,,,-99.99,,2013-03-04 00:21:00,
2013-03-03 19:31:00,36.0,30.0,29.58,West,270,7.0,9.0,76,-99.99,,,-99.99,,2013-03-04 00:31:00,
2013-03-03 19:41:00,36.0,30.0,29.58,West,270,7.0,9.0,76,-99.99,,,-99.99,,2013-03-04 00:41:00,
2013-03-03 19:50:00,36.0,30.0,29.58,WSW,240,7.0,9.0,76,-99.99,,,-99.99,,2013-03-04 00:50:00,
2013-03-03 20:11:00,36.0,30.0,29.58,WSW,240,7.0,9.0,76,-99.99,,,-99.99,,2013-03-04 01:11:00,
2013-03-03 20:21:00,36.0,30.0,29.58,WSW,240,7.0,9.0,76,-99.99,,,-99.99,,2013-03-04 01:21:00,
2013-03-03 20:31:00,36.0,30.0,29.58,WSW,240,7.0,9.0,76,-99.99,,,-99.99,,2013-03-04 01:31:00,
2013-03-03 20:41:00,36.0,30.0,29.58,WSW,240,7.0,9.0,76,-99.99,,,-99.99,,2013-03-04 01:41:00,
2013-03-03 20:50:00,37.0,31.0,29.58,West,260,7.0,7.0,78,-99.99,,,-99.99,,2013-03-04 01:50:00,
2013-03-03 21:11:00,37.0,31.0,29.58,West,260,7.0,7.0,78,-99.99,,,-99.99,,2013-03-04 02:11:00,
2013-03-03 21:22:00,37.0,31.0,29.58,West,260,7.0,7.0,78,-99.99,,,-99.99,,2013-03-04 02:22:00,
2013-03-03 21:31:00,37.0,31.0,29.58,West,260,7.0,7.0,78,-99.99,,,-99.99,,2013-03-04 02:31:00,
2013-03-03 21:41:00,37.0,31.0,29.58,West,260,7.0,7.0,78,-99.99,,,-99.99,,2013-03-04 02:41:00,
2013-03-03 21:50:00,38.0,32.0,29.58,WNW,300,9.0,11.0,79,-99.99,,,-99.99,,2013-03-04 02:50:00,
2013-03-03 22:11:00,38.0,32.0,29.58,WNW,300,9.0,11.0,79,-99.99,,,-99.99,,2013-03-04 03:11:00,
2013-03-03 22:21:00,38.0,32.0,29.58,WNW,300,9.0,11.0,79,-99.99,,,-99.99,,2013-03-04 03:21:00,
2013-03-03 22:31:00,38.0,32.0,29.58,WNW,300,9.0,11.0,79,-99.99,,,-99.99,,2013-03-04 03:31:00,
2013-03-03 22:41:00,38.0,32.0,29.58,WNW,300,9.0,11.0,79,-99.99,,,-99.99,,2013-03-04 03:41:00,
2013-03-03 22:50:00,37.0,32.0,29.57,NW,310,16.0,20.0,82,-99.99,,,-99.99,,2013-03-04 03:50:00,
2013-03-03 23:11:00,37.0,32.0,29.57,NW,310,16.0,20.0,82,-99.99,,,-99.99,,2013-03-04 04:11:00,
2013-03-03 23:21:00,37.0,32.0,29.57,NW,310,16.0,20.0,82,-99.99,,,-99.99,,2013-03-04 04:21:00,
2013-03-03 23:31:00,37.0,32.0,29.57,NW,310,16.0,20.0,82,-99.99,,,-99.99,,2013-03-04 04:31:00,
2013-03-03 23:41:00,37.0,32.0,29.57,NW,310,16.0,20.0,82,-99.99,,,-99.99,,2013-03-04 04:41:00,
2013-03-03 23:50:00,36.0,31.0,29.57,NW,310,18.0,20.0,84,-99.99,,,-99.99,,2013-03-04 04:50:00,